Find Kosmos-2390

NORAD ID: 27464 Int'l Des: 2002-036 Owner: KVR Country: RU operational
LEOCIRCULARPOLAR

Current View

Loading 3D Globe...

About Kosmos-2390

Kosmos-2390 (NORAD 27464) is a satellite launched Jul 8, 2002 by KVR of RU. It operates in LEO, CIRCULAR, POLAR orbit with a mass of 225.00 kg.

Upcoming Passes

Passes for default location (London). Set your location on the main map for personalized predictions.

Altitude History

Loading altitude history...

Two-Line Element Set

1 27464U 02036A 26194.64915065 .00000025 00000-0 10792-3 0 9991
2 27464 82.4863 328.4067 0025279 198.4206 161.5962 12.44624348 90963
Epoch: Jul 13, 2026 • Age: 11 hours

Current Status

Altitude 1497.6 km
Apogee / Perigee N/A
Velocity 7.12 km/s
Sub-Earth Point -63.30°S, 166.73°W
Launch Date Jul 8, 2002
Age 24 years
Type other

Technical Details

Classification Payload
Mass 225.00 kg
Dry Mass 225.00 kg
Total Mass 225.00 kg
Length 1.60 m
Diameter 0.80 m
Span 7.00 m
Shape Cyl + Ant
Manufacturer NPOPMR
Bus Type Strela-3
Phase Status In Orbit
Owner/State KVR/RU

Most Searched